DELTA 1 DEB, 10834

Orbit data source: Space-Track

DELTA 1 DEB, 10834 is space debris in SSO originally from a launch on Thu, 29 Jul 1976 UTC launched from the Air Force Western Test Range (AFWTR). Debris objects in space refer to the collection of defunct objects orbiting the Earth. Examples of debris include non-operational satellites, rocket bodies, and fragments generated from explosions, collisions, or faulty payload assembly.

Loading next visibility...
Identifier
10834, 1976-077CE
Orbit
SSO
Country
Flag of USUS
Related business
Manufacturer
Unknown
Mission
Spacecraft
Bus & Motor
Unknown
Mass
Unknown
Launch date (UTC)
1976-07-29 (50 years ago)
Launch vehicle
Unknown
Launch site
Air Force Western Test Range (AFWTR)
Object type
Payload
Rocket body
Debris
Shape & HBR
Unknown shape, 0.2 m
Radar Cross Section
Small (<0.1 m²)

Expand to show TLE details & history
Last TLE update: 14 hours ago

TLE from 14 hours ago
0 DELTA 1 DEB
1 10834U 76077CE  26104.28600272  .00001851  00000-0  17937-1 0  9996
2 10834 100.3698  48.3913 0142612  11.2805 148.9628 12.18672680197552
Epoch: 2026-04-14T06:51Z
TLE epoch observation values (Epoch: 2026-04-14T06:51:50.635Z)
Latitude
18.60299°
Longitude
-73.5197°
Altitude
1,698.325 km
Speed
6.985 km/s
True Right ascension
15h 27m 37s
True Declination
18° 30' 41"
Sunlit
Object was in full shadow at epoch
Visualization orbit readout
Latitude
Unknown
Longitude
Unknown
Altitude
Unknown
Speed
Unknown
Apparent Right ascension
Unknown
Apparent Declination
Unknown
Sunlit
N/A
Visualization observer readout
Local Sidereal Time
03:31:52
Azimuth
Unknown
Elevation
Unknown
Doppler factor
Unknown
Orbital elements
Apogee altitude
1,709.559 km
Perigee altitude
1,482.122 km
Semi-major axis
7,973.977 km
Eccentricity
0.01426
Inclination
100.3698°
RAAN
48.3913°
Arg. of periapsis
11.2805°
True anomaly
149.79268°
Mean anomaly
148.9628°
Eccentric anomaly
149.379°
Mean motion
3.04811 °/min
Orbital period
118.11 mins
BSTAR
0.017937
Loading maneuver chart data...
Computing Atmospheric mass density...
Loading historical data...
Loading historical data...
Loading historical data...
Loading historical data...
Loading historical data...
Loading historical data...
Loading historical data...

Documentation

Showing up to 5 results
|